Weather History for Hobart, OK

Change the Weather History Date:

Tuesday, December 10, 2013

  Actual Average Record
Temperature  
Mean Temperature 16 °F -  
Max Temperature 30 °F 50 °F 80 °F (1996)
Min Temperature 3 °F 29 °F 3 °F (2013)
Degree Days  
Heating Degree Days 48    
Moisture  
Dew Point 13 °F    
Average Humidity 80    
Maximum Humidity 96    
Minimum Humidity 66    
Precipitation  
Precipitation 0.00 in - - ()
Sea Level Pressure  
Sea Level Pressure 30.38 in    
Wind  
Wind Speed 9 mph (SW)    
Max Wind Speed 22 mph    
Max Gust Speed -    
Visibility 8 miles    
Events      
Averages and records for this station are not official NWS values.
T = Trace of Precipitation, MM = Missing Value Source: NWS Daily Summary

Daily Weather History Graph

Daily Weather History Graph

Search for Another Location

Airport:

Trip Planner

Search our weather history database for the weather conditions in past years. The results will help you decide how hot, cold, wet, or windy it might be!

Date:

Astronomy

Dec. 10, 2013 Rise Set
Actual Time 7:33 AM CST 5:24 PM CST
Civil Twilight 7:05 AM CST 5:52 PM CST
Nautical Twilight 6:33 AM CST 6:24 PM CST
Astronomical Twilight 6:03 AM CST 6:55 PM CST
Moon 1:15 PM CST (12/10) 1:06 AM CST (12/10)
Length of Visible Light 10h 47m
Length of Day
9h 51m
Waxing Gibbous, 62% of the Moon is Illuminated
Dec 10
Waxing Gibbous
Dec 17
Full
Dec 25
Last Quarter
Jan 1
New
Jan 7
First Quarter

Hourly Weather History & Observations

Time (CST) Temp. Windchill Dew Point Humidity Pressure Visibility Wind Dir Wind Speed Gust Speed Precip Events Conditions
12:53 AM 3.9 °F -6.9 °F 3.0 °F 96% 30.49 in 7.0 mi West 5.8 mph - N/A   Clear
1:53 AM 6.1 °F -4.3 °F 3.9 °F 91% 30.47 in 7.0 mi West 5.8 mph - N/A   Clear
2:53 AM 5.0 °F -8.1 °F 1.9 °F 87% 30.46 in 7.0 mi WSW 8.1 mph - N/A   Clear
3:53 AM 3.0 °F -8.0 °F 1.0 °F 91% 30.48 in 6.0 mi WSW 5.8 mph - N/A   Clear
4:53 AM 5.0 °F -8.1 °F 1.9 °F 87% 30.48 in 6.0 mi West 8.1 mph - N/A   Clear
5:53 AM 3.9 °F -6.9 °F -0.0 °F 84% 30.47 in 7.0 mi West 5.8 mph - N/A   Clear
6:53 AM 3.9 °F -5.3 °F 1.0 °F 88% 30.47 in 8.0 mi West 4.6 mph - N/A   Clear
7:53 AM 5.0 °F -6.9 °F 1.9 °F 87% 30.49 in 7.0 mi WSW 6.9 mph - N/A   Clear
8:53 AM 10.0 °F 0.4 °F 7.0 °F 87% 30.48 in 7.0 mi WSW 5.8 mph - N/A   Clear
9:53 AM 16.0 °F 10.4 °F 12.9 °F 88% 30.48 in 7.0 mi SW 3.5 mph - N/A   Clear
10:53 AM 19.0 °F 7.5 °F 14.0 °F 81% 30.48 in 8.0 mi SSW 10.4 mph - N/A   Clear
11:53 AM 23.0 °F 10.6 °F 17.1 °F 78% 30.45 in 8.0 mi SSW 13.8 mph - N/A   Clear
12:53 PM 26.1 °F 14.0 °F 18.0 °F 71% 30.40 in 9.0 mi SSW 15.0 mph - N/A   Clear
1:53 PM 28.0 °F 15.3 °F 18.0 °F 66% 30.36 in 10.0 mi SSW 18.4 mph - N/A   Clear
2:53 PM 30.0 °F 19.1 °F 21.0 °F 69% 30.34 in 10.0 mi SSW 15.0 mph - N/A   Clear
3:53 PM 30.0 °F 19.5 °F 21.9 °F 72% 30.30 in 9.0 mi South 13.8 mph - N/A   Clear
4:53 PM 28.0 °F 18.6 °F 21.0 °F 75% 30.29 in 8.0 mi South 10.4 mph - N/A   Clear
5:53 PM 26.1 °F 17.6 °F 21.0 °F 81% 30.28 in 9.0 mi South 8.1 mph - N/A   Clear
6:53 PM 28.9 °F 17.7 °F 21.9 °F 75% 30.26 in 9.0 mi South 15.0 mph - N/A   Clear
7:53 PM 30.9 °F 18.1 °F 23.0 °F 72% 30.25 in 10.0 mi South 21.9 mph - N/A   Clear
8:53 PM 30.0 °F 18.3 °F 21.9 °F 72% 30.25 in 10.0 mi South 17.3 mph - N/A   Clear
9:53 PM 30.0 °F 17.5 °F 21.9 °F 72% 30.23 in 10.0 mi South 19.6 mph - N/A   Clear
10:53 PM 28.0 °F 16.5 °F 21.0 °F 75% 30.25 in 10.0 mi SSW 15.0 mph - N/A   Clear
11:53 PM 28.9 °F 17.7 °F 21.9 °F 75% 30.24 in 10.0 mi South 15.0 mph - N/A   Clear